Regional Weather Roundup
Issued by NWS

Home | Current Version | Previous Version | Text Only | Print | Product List | Glossary Off
Versions: 1 2 3 4 5 6 7 8 9 10 11 12 13 14 15 16 17 18 19 20 21 22 23 24 25 26 27 28 29 30 31 32 33 34 35 36 37 38 39 40 41 42 43 44 45 46 47 48 49 50

000
ASUS45 KTFX 141919
RWRMT
MONTANA HOURLY WEATHER ROUNDUP
NATIONAL WEATHER SERVICE GREAT FALLS MT
119 PM MDT SUN SEP 14 2014

NOTE: "FAIR" INDICATES FEW OR NO CLOUDS BELOW 12000 FEET WITH NO
SIGNIFICANT WEATHER AND/OR OBSTRUCTIONS TO VISIBILITY.

* THESE STATIONS ARE NOT UNDER NWS QUALITY CONTROL. THEY DO NOT
   REPORT WEATHER SUCH AS PRECIPITATION OR FOG.

MTZ001>007-043-142000-
WEST OF THE DIVIDE
CITY           SKY/WX    TMP DP  RH WIND       PRES   REMARKS
KALISPELL      SUNNY     61  36  39 VRB3      30.09F
MISSOULA       SUNNY     63  34  34 CALM      30.09F
BUTTE          SUNNY     63  28  27 VRB5      30.12F
MULLAN PASS    SUNNY     55  30  39 VRB3      30.14S
* LINCOLN      N/A       59  34  39 S3         N/A
* LOOKOUT PASS N/A       62  34  35 S6         N/A
* POLSON       N/A       64  40  41 SW3        N/A
* RONAN APT    SUNNY     63  37  38 N/A        N/A
* SEELEY LAKE  N/A       61  33  35 S3G9       N/A
* THOMP F APT  SUNNY     69  30  23 S8         N/A
$$

MTZ008-052>055-142000-
SOUTHWEST MONTANA
CITY           SKY/WX    TMP DP  RH WIND       PRES   REMARKS
BOZEMAN        SUNNY     59  37  44 CALM      30.11F
DILLON         PTCLDY    64  34  33 N6        30.09F
W YELLOWSTONE  SUNNY     66  23  19 W10G17    30.14F
* THREE FORKS  SUNNY     61  61 100 N/A        N/A
* BOULDER HILL N/A       58  29  33 VRB9G14    N/A
* MONIDA PASS  N/A       66  15  14 W12G18     N/A
* RAYNOLDS PAS N/A       65  53  65 SW11G19    N/A
* WHITEHALL    N/A       57  36  46 S5         N/A
* WISE RIVER   N/A       60  34  38 NW4        N/A
$$

MTZ009>010-012-014-046-048-049-054-142000-
EAST SLOPES AND CENTRAL MONTANA
CITY           SKY/WX    TMP DP  RH WIND       PRES   REMARKS
CUT BANK       SUNNY     61  36  39 N/A       30.11S
GREAT FALLS    SUNNY     59  37  44 S3        30.11S
HELENA         SUNNY     61  37  41 NW3       30.10F
MALMSTROM AFB  SUNNY     57  39  51 N5        30.13S
* CONRAD       SUNNY     59  39  48 SE5        N/A
* EAST GLACIER N/A       57  32  39 E4         N/A
* MONARCH      N/A       54  29  38 NW12       N/A
* PENDROY      N/A       61  32  34 NE5G11     N/A
* ROGERS PASS  N/A       59  31  35 S4G12      N/A
* SAINT MARY   N/A       61  36  39 N5G10      N/A
* SWEET GRASS  N/A       56  37  49 S11        N/A
* WHITE SULPH  N/A       59  38  46 W4G10      N/A
$$

MTZ011-013-016-021-035-040-045-047-050-051-142000-
NORTH CENTRAL MONTANA
CITY           SKY/WX    TMP DP  RH WIND       PRES   REMARKS
HAVRE          SUNNY     61  37  41 VRB3      30.11F
LEWISTOWN      SUNNY     57  37  47 N6        30.11S
* FORT BENTON  SUNNY     57  37  47 W5        30.12F
* CHESTER      N/A       58  37  46 SW2G8      N/A
* DENTON       N/A       57  37  47 NW9        N/A
* JUDITH GAP   N/A       54  34  47 N17G24     N/A
* LOMA         N/A       57  38  49 VRB1G8     N/A
$$

MTZ017>020-022>027-061-062-142000-
NORTHEAST MONTANA
CITY           SKY/WX    TMP DP  RH WIND       PRES   REMARKS
GLASGOW        CLOUDY    54  36  51 SE10      30.15F
GLENDIVE       CLOUDY    54  32  43 NE3       30.17F
JORDAN         PTCLDY    57  36  46 SE12      30.12F
SIDNEY         PTCLDY    57  30  36 NE3       30.18F
WOLF POINT     PTCLDY    57  34  42 VRB6      30.16F
* BEAVER HILL  N/A       56  26  32 E6G14      N/A
* CIRCLE       N/A       53  34  49 E2G7       N/A
* LINDSAY DVD  N/A       51  28  41 E10        N/A
* NAVAJO       N/A       55  30  39 E4         N/A
* SACO         N/A       53  40  62 SE7        N/A
$$

MTZ028>042-056>058-142000-
SOUTHCENTRAL AND SOUTHEAST MONTANA
CITY           SKY/WX    TMP DP  RH WIND       PRES   REMARKS
BAKER          PTCLDY    57 N/A N/A SE14      30.14F
BILLINGS       SUNNY     57  37  47 CALM      30.09F
LIVINGSTON     SUNNY     64  37  37 W6        30.08F
MILES CITY     SUNNY     59  34  39 SE13      30.11F
* LAUREL APT   PTCLDY    57  34  42 N/A        N/A
* ROUNDUP APT  SUNNY     57  37  47 N/A        N/A
* ALZADA       N/A       52  35  52 E10        N/A
* HYSHAM       N/A       61  33  35 NE3G8      N/A
* LAME DEER    N/A       54  38  55 SE6G11     N/A
* REED POINT   N/A       60  36  41 W2         N/A
* ROSCOE HILL  N/A       55  30  39 E4         N/A
$$

REGIONAL REPORTS...DAKOTAS
CITY           SKY/WX    TMP DP  RH WIND       PRES   REMARKS
WILLISTON      SUNNY     57  32  39 NE6       30.17F
DICKINSON      PTCLDY    55  34  45 N6        30.15F
BEACH          N/A       54  28  37 SE5       30.16F
CROSBY         PTCLDY    55  32  42 NE3       30.16F
TIOGA          SUNNY     55  23  29 NW7       30.19F
WATFORD CITY   SUNNY     55  28  35 NW5       30.14F
BISMARCK       PTCLDY    57  36  46 VRB5      30.17F
GRAND FORKS    CLOUDY    55  43  64 NW9       30.11S
FARGO          PTSUNNY   57  45  64 NW9       30.12S
BUFFALO SD     PTCLDY    57  36  46 SE10G18   30.07F
RAPID CITY     CLOUDY    52  36  55 SE8       30.14F
$$

REGIONAL REPORTS...WYOMING/IDAHO/WASHINGTON
CITY           SKY/WX    TMP DP  RH WIND       PRES   REMARKS
GILLETTE       PTCLDY    57  41  55 VRB3      30.08F
SHERIDAN       PTCLDY    55  39  55 NW6       30.09F
CODY           SUNNY     59  39  48 NE3       30.09S
YELLOWSTONE LA SUNNY     63  19  18 W12G25    30.21F
SALMON         SUNNY     64  30  28 CALM      30.04F
MULLAN PASS    SUNNY     55  30  39 VRB3      30.14S
SAND POINT     SUNNY     66  39  37 NE10      30.05F
SPOKANE        SUNNY     68  37  32 VRB5      30.03F
$$

REGIONAL REPORTS...ALBERTA
CITY           SKY/WX    TMP DP  RH WIND       PRES   REMARKS
CALGARY        PTSUNNY   59  39  48 N5        30.10S
LETHBRIDGE     SUNNY     59  43  56 NW5       30.10S
MEDICINE HAT   SUNNY     63  39  41 SW10      30.09F
EDMONTON       SUNNY     63  41  45 NW6       30.04F
WATERTON GATE  N/A       61  36  39 NE3        N/A
CARDSTON       N/A       57  43  60 NW3        N/A
MILK RIVER     N/A       61  39  44 S6         N/A
$$

REGIONAL REPORTS...SASKATCHEWAN
CITY           SKY/WX    TMP DP  RH WIND       PRES   REMARKS
SWIFT CURRENT  N/A       57  34  42 W9        30.10F
MOOSE JAW      PTSUNNY   54  39  57 NE5       30.14R
REGINA         PTSUNNY   55  36  49 W12       30.14F
VAL MARIE      N/A       55  36  49 S9         N/A
ASSINIBOIA     N/A       55  27  34 SW8        N/A
CORONACH       N/A       55  30  39 W7         N/A

$$



USA.gov is the U.S. government's official web portal to all federal, state and local government web resources and services.